Location: Houhaj�rvi
(61.2667°N, 23.0167°E)
Time: 19:49:06
(UTC+00:00)

Cosmos 1536 - Pass Details

Date: 13 December 2019
Orbit: 540 x 559 km, 82.5° (Epoch: 17 January)

Event Time Altitude Azimuth Distance (km) Brightness Sun altitude
Rises 14:53:08 0° 346° (NNW) 2,747 6.2 -10.2°
Reaches altitude 10° 14:55:21 10° 349° (N) 1,844 5.3 -10.5°
Maximum altitude 14:59:22 63° 71° (ENE) 621 2.8 -10.9°
Drops below altitude 10° 15:03:21 10° 154° (SSE) 1,819 5.5 -11.3°
Sets 15:05:31 0° 157° (SSE) 2,705 6.4 -11.5°
